Simultaneous Nadir Overpasses (SNOs) Predictions

Prediction of SNOs between GOES-16 and TERRA Satellite Orbit:

Table of predicted SNOs for the next 14.0 days since TLE Epoch: 3/21/2020
Index Date Time (GOES-16) GOES-16 Lat,Lon TERRA Lat,Lon Distance(km) Time Diff (sec)
1 03/21/2020 03:18:01 0.03, -75.16 0.73, -71.76 385.55 80
2 03/21/2020 15:36:37 -0.03, -75.17 0.32, -76.93 199.13 80
3 03/23/2020 15:27:05 -0.03, -75.16 -0.32, -73.97 136.56 80
4 03/24/2020 03:45:49 0.03, -75.14 -0.79, -79.16 455.78 80
5 03/25/2020 15:14:52 -0.03, -75.16 -0.90, -70.99 472.77 80
6 03/26/2020 03:33:36 0.03, -75.14 -0.21, -76.18 119.44 80
7 03/28/2020 03:21:24 0.04, -75.14 0.44, -73.23 217.22 80
8 03/28/2020 15:42:39 -0.04, -75.15 0.67, -78.38 367.18 80
9 03/30/2020 15:30:27 -0.05, -75.15 0.02, -75.42 30.38 80
10 04/01/2020 15:20:55 -0.05, -75.16 -0.63, -72.46 306.68 80
11 04/02/2020 03:42:19 0.06, -75.14 -0.47, -77.65 285.10 80




NCC Satellite Simultaneous Nadir Overpasses (SNOs) Prediction Service
